Regional Weather Roundup
Issued by NWS

Home | Current Version | Previous Version | Text Only | Print | Product List | Glossary On
Versions: 1 2 3 4 5 6 7 8 9 10 11 12 13 14 15 16 17 18 19 20 21 22 23 24 25 26 27 28 29 30 31 32 33 34 35 36 37 38 39 40 41 42 43 44 45 46 47 48 49 50
000
ASUS42 KKEY 030010
RWRKEY

FLORIDA REGIONAL WEATHER ROUNDUP FOR THE FLORIDA KEYS
NATIONAL WEATHER SERVICE KEY WEST FLORIDA
800 PM EDT THU JUL 02 2015

...SOUTH FLORIDA AND THE KEYS...

CITY           SKY/WX    TMP DP  RH WIND       PRES   REMARKS
FORT MYERS     CLOUDY    76  72  87 N14       30.09R
SW REGIONAL AP TSTM      75  69  81 NE8       30.09R
NAPLES         MOCLDY    79  71  76 E14       30.08R
MIAMI          MOCLDY    85  71  63 SE12      30.08R HX  90
WEST KENDALL   PTCLDY    84  72  67 E12       30.08R
HOMESTEAD      PTCLDY    84  71  64 E6        30.07R
MARATHON       PTCLDY    85  74  69 SE9       30.06R HX  92
BOCA CHICA NAS MOCLDY    85  74  69 E9        30.07R HX  92
KEY WEST INTL  PTCLDY    85  76  74 E9        30.07R HX  94

...INTERNATIONAL WEATHER...

CITY           SKY/WX    TMP DP  RH WIND       PRES   REMARKS
NASSAU BAHAMAS MOCLDY    86  73  66 SE9       30.09R HX  93
CANCUN MEXICO  MOCLDY    84  77  79 E9        29.99F HX  94
COZUMEL MEXICO MOCLDY    81  75  83 E7        29.99R

ADJACENT COASTAL WATERS...

STATION/POSITION TIME  SKY/WX   TEMP    WIND        PRES    WAVE
                                AIR SEA DIR/SP/G            HT/PER
                 (UTC)          (F)     (DEG/KT/KT) (MB)    (FT/S)
PULASKI SHOAL LI 2300            86     100/  3/  4 1017.4R
SAND KEY         2350            85     100/ 10/ 12 1018.0R
SOMBRERO KEY     2300            85     110/ 10/ 11 1018.4R
LONG KEY         2300            85 89  100/ 11/ 12 1017.9R
MOLASSES REEF    2300            84 85   90/ 11/ 14 1017.3R
FOWEY ROCKS      NOT AVBL

$$


USA.gov is the U.S. government's official web portal to all federal, state and local government web resources and services.